This is the latest recevied weather packets stored in our database for station/object KB9GXK. If no packets are shown the sender has not sent any weather packets the latest 10 day(s).
| Time | Temp. | Humidity | Pressure | Rain* | Wind** | Luminosity | Snow |
|---|---|---|---|---|---|---|---|
| 1777925838 | 27.22° C | 26% | 999.1 hPa | 0 mm | - | 552 W/m² | - |
| 1777925535 | 27.22° C | 26% | 999 hPa | 0 mm | - | 549 W/m² | - |
| 1777925233 | 27.22° C | 27% | 999.1 hPa | 0 mm | - | 545 W/m² | - |
| 1777924929 | 26.67° C | 27% | 999.2 hPa | 0 mm | - | 562 W/m² | - |
| 1777924625 | 27.22° C | 27% | 999.2 hPa | 0 mm | - | 581 W/m² | - |
| 1777924321 | 27.22° C | 26% | 999.2 hPa | 0 mm | - | 558 W/m² | - |
| 1777924018 | 27.22° C | 26% | 999.4 hPa | 0 mm | - | 514 W/m² | - |
| 1777923714 | 27.22° C | 27% | 999.5 hPa | 0 mm | - | 601 W/m² | - |
| 1777923411 | 27.22° C | 27% | 999.5 hPa | 0 mm | - | 627 W/m² | - |
| 1777923109 | 27.22° C | 28% | 999.6 hPa | 0 mm | - | 649 W/m² | - |
| 1777922807 | 27.22° C | 27% | 999.7 hPa | 0 mm | - | 572 W/m² | - |
| 1777922504 | 26.67° C | 29% | 999.6 hPa | 0 mm | - | 587 W/m² | - |
| 1777922203 | 26.67° C | 25% | 999.6 hPa | 0 mm | - | 622 W/m² | - |
| 1777921899 | 26.67° C | 28% | 999.8 hPa | 0 mm | - | 607 W/m² | - |
| 1777921595 | 27.22° C | 29% | 999.9 hPa | 0 mm | - | 650 W/m² | - |
| 1777921292 | 26.67° C | 28% | 999.8 hPa | 0 mm | - | 664 W/m² | - |
| 1777920988 | 26.11° C | 29% | 999.6 hPa | 0 mm | - | 623 W/m² | - |
| 1777920685 | 26.67° C | 28% | 999.7 hPa | 0 mm | - | 668 W/m² | - |
| 1777920381 | 26.67° C | 28% | 1000.1 hPa | 0 mm | - | 681 W/m² | - |
| 1777920076 | 26.67° C | 27% | 999.8 hPa | 0 mm | - | 699 W/m² | - |
| 1777919773 | 26.11° C | 28% | 999.9 hPa | 0 mm | - | 688 W/m² | - |
| 1777919471 | 26.11° C | 28% | 1000 hPa | 0 mm | - | 687 W/m² | - |
| 1777919168 | 26.67° C | 28% | 1000.2 hPa | 0 mm | - | 676 W/m² | - |
| 1777918865 | 25.56° C | 29% | 1000.1 hPa | 0 mm | - | 679 W/m² | - |
| 1777918562 | 25.56° C | 29% | 999.9 hPa | 0 mm | - | 632 W/m² | - |
* Rain latest hour (hover to see other rain measurements)
** Current wind speed in m/s (hover to see current wind gust speed)